Location: Lynch Observatory
(39.9540°N, 75.1861°W)
Time: 18:04:29
(UTC-04:00)

DOVE 4 - Visible Passes

Search period start: 24 April 2024 00:00
Search period end: 04 May 2024 00:00
Orbit: 580 x 781 km, 97.7° (Epoch: 24 April)

Date Brightness Start Highest point End Pass type
(mag) Time Alt. Az. Time Alt. Az. Time Alt. Az.
24 Apr ? 22:30:23 10° NNE 22:33:05 37° NNE 22:33:05 37° NNE visible
25 Apr ? 00:09:56 10° NW 00:11:32 12° WNW 00:11:32 12° WNW visible
25 Apr ? 21:30:42 10° ENE 21:31:20 12° ENE 21:31:20 12° ENE visible
25 Apr ? 23:06:34 10° N 23:09:46 40° NNW 23:09:46 40° NNW visible
26 Apr ? 22:05:28 10° NNE 22:07:59 27° ENE 22:07:59 27° ENE visible
26 Apr ? 23:43:22 10° NNW 23:46:26 21° WNW 23:46:26 21° WNW visible
27 Apr ? 22:41:14 10° NNE 22:44:39 53° NNE 22:44:39 53° NNE visible
28 Apr ? 21:40:55 10° NE 21:42:50 18° ENE 21:42:50 18° ENE visible
28 Apr ? 23:17:33 10° N 23:21:17 37° WNW 23:21:17 37° WNW visible
29 Apr ? 22:16:07 10° NNE 22:19:29 40° ENE 22:19:29 40° ENE visible
29 Apr ? 23:54:35 10° NNW 23:57:33 17° WNW 23:57:55 17° WNW visible
30 Apr ? 21:17:29 10° ENE 21:17:39 10° ENE 21:17:39 10° ENE visible
30 Apr ? 22:52:03 10° N 22:56:06 64° NNW 22:56:06 64° NNW visible
01 May ? 21:51:16 10° NE 21:54:15 25° ENE 21:54:15 25° ENE visible
01 May ? 23:28:30 10° N 23:32:30 30° WNW 23:32:42 30° WNW visible
02 May ? 22:26:44 10° NNE 22:30:52 60° ENE 22:30:52 60° ENE visible
03 May ? 00:05:53 10° NW 00:08:14 14° WNW 00:09:18 13° W visible
03 May ? 21:26:58 10° NE 21:29:00 15° E 21:29:00 15° E visible
03 May ? 23:02:47 10° N 23:07:20 54° WNW 23:07:26 54° W visible
